Voltar ao catálogo

JILIN-1 GAOFEN 07B 01 XING

AtivoCiênciaSSO
NORAD 66993·PAYLOAD·🇨🇳 China
Este nome de satélite ainda não foi confirmado por fontes oficiais.

Lançado Dec 10, 2025 de Jiuquan Satellite Launch Center

Loading…

Próximas Passagens (próximas 24 horas)

TLE

AtualizadoSource: Space-Track

Época: Sep 14, 2026, 10:37 UTC

1 66993U 25292A   26257.44240383  .00002862  00000-0  19553-3 0  9997
2 66993  97.6239 332.2897 0015918  58.4220 301.8559 15.06869773 41884

Acompanhe JILIN-1 GAOFEN 07B 01 XING em tempo real com AllMySat

Download on the App Store